Location: Linz
(48.3300°N, 14.3000°E)
Time: 20:32:43
(UTC+01:00)

ISS - Pass Details

Date: 14 November 2017
Orbit: 402 x 407 km, 51.6° (Epoch: 20 November)

Event Time Altitude Azimuth Distance (km) Brightness Sun altitude
Exits shadow 04:12:45 16° 87° (E) 1,160 -0.7 -29.1°
Drops below altitude 10° 04:13:30 10° 91° (E) 1,456 -0.1 -29.0°
Sets 04:15:36 0° 96° (E) 2,314 1.2 -28.7°
